This is the latest recevied weather packets stored in our database for station/object KC3AWA. If no packets are shown the sender has not sent any weather packets the latest 10 day(s).
| Time | Temp. | Humidity | Pressure | Rain* | Wind** | Luminosity | Snow |
|---|---|---|---|---|---|---|---|
| 1777814541 | 7.22° C | 55% | 1017.2 hPa | 0 mm | - | 460 W/m² | - |
| 1777814238 | 7.78° C | 56% | 1017.2 hPa | 0 mm | - | 442 W/m² | - |
| 1777813935 | 7.78° C | 59% | 1017 hPa | 0 mm | - | 428 W/m² | - |
| 1777813633 | 7.78° C | 61% | 1017 hPa | 0 mm | - | 410 W/m² | - |
| 1777813330 | 7.22° C | 64% | 1017.3 hPa | 0 mm | - | 392 W/m² | - |
| 1777813027 | 6.67° C | 67% | 1017 hPa | 0 mm | - | 375 W/m² | - |
| 1777812725 | 6.67° C | 66% | 1017.1 hPa | 0 mm | - | 362 W/m² | - |
| 1777812421 | 5.56° C | 65% | 1017.1 hPa | 0 mm | - | 346 W/m² | - |
| 1777812120 | 5.56° C | 70% | 1017 hPa | 0 mm | - | 328 W/m² | - |
| 1777811817 | 5.56° C | 71% | 1016.7 hPa | 0 mm | - | 308 W/m² | - |
| 1777811515 | 5° C | 72% | 1017.1 hPa | 0 mm | - | 294 W/m² | - |
| 1777811210 | 4.44° C | 74% | 1016.9 hPa | 0 mm | - | 278 W/m² | - |
| 1777810908 | 3.89° C | 77% | 1017 hPa | 0 mm | - | 261 W/m² | - |
| 1777810604 | 3.89° C | 76% | 1016.7 hPa | 0 mm | - | 247 W/m² | - |
| 1777810302 | 3.33° C | 78% | 1016.7 hPa | 0 mm | - | 226 W/m² | - |
| 1777809997 | 3.33° C | 77% | 1016.6 hPa | 0 mm | - | 210 W/m² | - |
| 1777809696 | 3.33° C | 79% | 1016.8 hPa | 0 mm | - | 187 W/m² | - |
| 1777809392 | 2.78° C | 79% | 1016.7 hPa | 0 mm | - | 172 W/m² | - |
| 1777809090 | 2.78° C | 79% | 1016.9 hPa | 0 mm | - | 161 W/m² | - |
| 1777808788 | 2.78° C | 81% | 1016.8 hPa | 0 mm | - | 144 W/m² | - |
| 1777808484 | 2.22° C | 82% | 1016.8 hPa | 0 mm | - | 130 W/m² | - |
| 1777808182 | 2.22° C | 82% | 1016.9 hPa | 0 mm | - | 117 W/m² | - |
| 1777807880 | 1.67° C | 85% | 1016.9 hPa | 0 mm | - | 105 W/m² | - |
| 1777807578 | 1.11° C | 85% | 1016.9 hPa | 0 mm | - | 93 W/m² | - |
| 1777807275 | 1.11° C | 86% | 1016.7 hPa | 0 mm | - | 81 W/m² | - |
* Rain latest hour (hover to see other rain measurements)
** Current wind speed in m/s (hover to see current wind gust speed)